Date,TemperatureHighF,TemperatureAvgF,TemperatureLowF,DewpointHighF,DewpointAvgF,DewpointLowF,HumidityHigh,HumidityAvg,HumidityLow,PressureMaxIn,PressureMinIn,WindSpeedMaxMPH,WindSpeedAvgMPH,GustSpeedMaxMPH,PrecipitationSumIn
2013-1-1,49.0,37.9,29.0,25.0,17.3,7.0,72,47,19,30.14,30.01,7,1,13,0.00
2013-1-2,54.0,36.5,27.0,23.0,20.0,16.0,69,53,29,30.11,29.98,3,0,12,0.00
2013-1-3,32.0,27.5,23.0,25.0,23.4,21.0,93,85,67,30.21,30.07,3,0,11,0.00
2013-1-4,34.0,25.8,22.0,30.0,23.4,20.0,94,91,83,30.22,30.13,4,0,8,0.00
2013-1-5,43.0,31.6,24.0,29.0,23.8,21.0,95,75,43,30.23,30.14,11,3,21,0.00
2013-1-6,51.0,34.5,24.0,30.0,23.7,17.0,84,66,40,30.31,30.12,3,0,7,0.00
2013-1-7,56.0,40.4,30.0,35.0,28.3,21.0,81,63,43,30.12,29.80,8,1,14,0.00
2013-1-8,40.0,32.1,28.0,33.0,29.2,25.0,96,90,77,29.96,29.75,5,1,11,0.00
2013-1-9,37.0,34.8,32.0,36.0,33.2,30.0,96,94,86,30.06,29.91,11,4,21,0.00
2013-1-10,53.0,40.7,31.0,40.0,33.6,29.0,92,77,49,30.03,29.89,13,2,25,0.00
2013-1-11,61.0,51.9,45.0,38.0,28.1,22.0,75,42,23,29.93,29.72,15,4,37,0.00
2013-1-12,53.0,42.5,30.0,30.0,23.2,13.0,75,48,28,29.89,29.72,7,0,18,0.00
2013-1-13,42.0,31.3,23.0,19.0,12.5,5.0,69,46,30,30.02,29.88,5,1,11,0.00
2013-1-14,31.0,24.7,21.0,24.0,20.0,17.0,92,82,65,29.99,29.87,5,1,11,0.00
2013-1-15,35.0,24.8,19.0,23.0,18.3,10.0,90,77,57,30.14,29.93,5,1,10,0.00
2013-1-16,51.0,33.0,18.0,18.0,8.2,-2.0,58,36,23,30.28,30.14,11,3,17,0.00
2013-1-17,56.0,39.9,29.0,25.0,20.6,15.0,68,48,27,30.42,30.28,6,1,12,0.00
2013-1-18,57.0,43.2,32.0,24.0,21.9,19.0,67,45,25,30.36,30.17,6,1,24,0.00
2013-1-19,69.0,52.2,39.0,26.0,22.2,19.0,50,33,18,30.22,30.09,8,2,20,0.00
2013-1-20,70.0,51.0,37.0,29.0,22.9,18.0,49,35,19,30.22,30.03,7,1,16,0.00
2013-1-21,59.0,45.6,37.0,27.0,23.0,19.0,59,42,25,30.19,30.08,5,0,13,0.00
2013-1-22,73.0,53.4,37.0,31.0,28.3,24.0,63,42,20,30.20,30.10,4,0,14,0.00
2013-1-23,73.0,57.4,45.0,34.0,30.7,27.0,54,38,22,30.29,30.18,12,2,18,0.00
2013-1-24,76.0,60.5,50.0,37.0,33.8,31.0,55,39,19,30.25,30.13,7,1,17,0.00
2013-1-25,76.0,60.4,50.0,41.0,36.0,32.0,56,41,26,30.21,30.08,8,1,14,0.00
2013-1-26,74.0,60.6,48.0,41.0,36.8,32.0,69,45,24,30.12,29.95,10,2,20,0.00
2013-1-27,73.0,62.7,47.0,43.0,36.1,31.0,70,39,24,30.02,29.91,5,1,22,0.00
2013-1-28,69.0,59.4,50.0,37.0,30.1,24.0,48,34,22,29.95,29.80,14,2,33,0.00
2013-1-29,58.0,47.6,34.0,30.0,20.6,6.0,56,35,23,29.88,29.70,19,8,35,0.00
2013-1-30,47.0,36.5,26.0,18.0,11.1,4.0,62,37,19,30.12,29.88,14,5,27,0.00
2013-1-31,63.0,49.8,31.0,16.0,14.0,8.0,41,25,15,30.18,30.06,3,0,7,0.00
2013-2-1,67.0,53.4,36.0,19.0,15.7,14.0,40,24,14,30.19,30.05,7,1,25,0.00
2013-2-2,64.0,49.7,40.0,22.0,15.2,9.0,42,26,15,30.27,30.12,4,1,19,0.00
2013-2-3,60.0,48.7,36.0,26.0,23.2,22.0,58,39,24,30.26,29.93,6,1,17,0.00
2013-2-4,67.0,56.1,47.0,31.0,27.8,21.0,45,34,25,29.98,29.88,13,4,24,0.00
2013-2-5,67.0,52.8,41.0,35.0,29.7,25.0,68,43,25,30.00,29.89,7,1,19,0.00
2013-2-6,69.0,54.7,42.0,35.0,31.4,29.0,62,43,25,29.95,29.82,6,1,17,0.00
2013-2-7,68.0,54.8,44.0,31.0,24.7,22.0,48,32,17,30.10,29.91,13,2,19,0.00
2013-2-8,65.0,50.2,36.0,35.0,29.9,23.0,75,47,28,30.12,29.89,5,0,16,0.00
2013-2-9,72.0,58.6,46.0,38.0,28.7,14.0,59,36,15,29.91,29.63,20,7,35,0.00
2013-2-10,61.0,47.2,36.0,22.0,17.1,14.0,41,31,21,29.92,29.80,20,5,30,0.00
2013-2-11,65.0,50.4,35.0,32.0,24.2,15.0,57,38,22,29.93,29.77,8,1,28,0.00
2013-2-12,52.0,43.4,36.0,30.0,16.3,4.0,66,36,14,30.02,29.79,20,8,38,0.00
2013-2-13,57.0,42.8,27.0,20.0,10.7,4.0,73,33,12,30.06,29.91,5,1,14,0.00
2013-2-14,65.0,47.7,34.0,15.0,10.1,6.0,31,23,13,30.02,29.91,8,1,18,0.00
2013-2-15,47.0,35.8,29.0,28.0,24.1,10.0,82,66,23,30.29,30.00,9,1,22,0.00
2013-2-16,62.0,42.6,26.0,25.0,17.7,9.0,85,44,17,30.34,30.11,5,1,14,0.00
2013-2-17,68.0,52.4,36.0,19.0,14.3,9.0,38,23,11,30.11,29.80,7,2,18,0.00
2013-2-18,66.0,56.2,43.0,18.0,7.3,2.0,25,15,10,30.03,29.81,15,4,30,0.00
2013-2-19,60.0,48.9,41.0,28.0,18.5,4.0,54,31,19,30.03,29.87,4,0,11,0.00
2013-2-20,73.0,56.5,36.0,34.0,20.7,2.0,78,35,7,29.89,29.45,14,4,36,0.00
2013-2-21,55.0,42.8,31.0,24.0,17.0,8.0,73,40,17,29.85,29.55,21,9,35,0.00
2013-2-22,60.0,44.0,31.0,18.0,11.7,8.0,42,28,17,29.93,29.83,11,1,24,0.00
2013-2-23,65.0,49.6,32.0,20.0,14.1,9.0,49,26,13,29.98,29.79,13,4,24,0.00
2013-2-24,70.0,58.6,39.0,16.0,8.6,0.0,27,15,7,29.79,29.49,18,5,40,0.00
2013-2-25,51.0,40.5,28.0,17.0,10.8,2.0,53,30,20,29.94,29.65,21,9,40,0.00
2013-2-26,63.0,45.5,30.0,8.0,3.5,-1.0,33,20,8,29.93,29.75,8,2,22,0.00
2013-2-27,51.0,41.1,32.0,17.0,9.3,-2.0,48,28,12,30.16,29.84,13,2,24,0.00
2013-2-28,55.0,40.4,26.0,15.0,11.2,7.0,55,32,17,30.20,30.10,6,1,13,0.00
2013-3-1,58.0,45.0,32.0,13.0,8.0,2.0,39,23,14,30.26,30.14,10,1,21,0.00
2013-3-2,68.0,56.3,38.0,16.0,13.0,7.0,28,19,13,30.32,30.18,4,0,10,0.00
2013-3-3,79.0,65.0,43.0,16.0,10.4,4.0,27,13,7,30.19,29.89,9,3,28,0.00
2013-3-4,76.0,67.3,53.0,22.0,3.4,-2.0,21,9,5,29.93,29.75,14,4,30,0.00
2013-3-5,63.0,47.5,35.0,33.0,23.2,14.0,70,42,17,30.31,29.93,10,2,22,0.00
2013-3-6,68.0,50.5,37.0,24.0,21.9,20.0,52,35,18,30.22,30.01,9,1,25,0.00
2013-3-7,77.0,61.4,48.0,26.0,22.5,19.0,33,23,14,30.03,29.90,6,1,18,0.00
2013-3-8,75.0,63.4,51.0,37.0,31.8,22.0,58,32,21,30.00,29.80,10,2,29,0.00
2013-3-9,69.0,59.4,47.0,32.0,28.1,14.0,43,31,19,29.84,29.66,16,5,27,0.00
2013-3-10,51.0,43.6,35.0,22.0,16.1,12.0,52,34,22,30.11,29.84,16,2,20,0.00
2013-3-11,65.0,47.1,31.0,20.0,13.5,7.0,47,29,13,30.13,29.96,8,2,17,0.00
2013-3-12,69.0,55.2,43.0,24.0,14.0,7.0,32,20,12,30.22,29.98,9,2,17,0.00
2013-3-13,71.0,48.6,35.0,24.0,21.7,16.0,57,37,15,30.32,30.21,7,1,13,0.00
2013-3-14,79.0,67.7,48.0,24.0,19.2,16.0,29,17,10,30.26,30.11,6,1,13,0.00
2013-3-15,82.0,64.1,50.0,29.0,21.5,13.0,38,22,10,30.17,29.94,4,1,17,0.00
2013-3-16,83.0,67.4,51.0,19.0,14.8,6.0,25,14,8,29.96,29.75,11,2,20,0.00
2013-3-17,78.0,66.2,56.0,19.0,12.2,5.0,18,12,9,29.88,29.72,19,3,36,0.00
2013-3-18,74.0,64.9,54.0,23.0,17.9,11.0,22,16,13,30.00,29.83,7,2,20,0.00
2013-3-19,80.0,69.9,55.0,22.0,16.6,13.0,24,13,10,29.99,29.86,4,1,24,0.00
2013-3-20,67.0,52.5,40.0,42.0,38.0,34.0,83,60,40,30.22,29.93,4,1,12,0.00
2013-3-21,82.0,65.2,51.0,43.0,32.3,15.0,69,37,9,29.93,29.64,19,5,31,0.00
2013-3-22,79.0,70.1,58.0,26.0,19.8,15.0,26,15,10,29.78,29.64,10,3,25,0.00
2013-3-23,73.0,62.8,53.0,27.0,17.8,7.0,31,19,10,29.86,29.72,18,6,40,0.00
2013-3-24,59.0,41.4,24.0,17.0,8.3,-9.0,62,29,11,30.10,29.86,4,0,17,0.00
2013-3-25,55.0,40.9,29.0,16.0,11.1,5.0,39,30,21,30.17,29.93,5,1,14,0.00
2013-3-26,65.0,45.3,30.0,19.0,15.3,13.0,50,32,16,30.21,30.03,7,1,17,0.00
2013-3-27,78.0,62.8,42.0,32.0,27.2,15.0,48,27,15,30.09,29.95,7,2,18,0.00
2013-3-28,84.0,65.5,53.0,43.0,34.9,27.0,51,35,13,30.08,29.96,9,1,21,0.00
2013-3-29,81.0,70.5,57.0,47.0,37.2,25.0,65,34,15,30.09,29.98,6,1,11,0.00
2013-3-30,82.0,66.2,51.0,44.0,29.3,-99.9,61,32,13,30.08,29.93,6,1,18,0.00
2013-3-31,76.0,69.7,61.0,37.0,28.9,22.0,39,22,17,30.02,29.91,8,1,19,0.00
2013-4-1,85.0,72.1,59.0,53.0,40.5,33.0,64,35,19,30.04,29.82,9,1,19,0.00
2013-4-2,69.0,59.1,45.0,50.0,45.4,42.0,89,61,43,29.93,29.81,8,1,18,0.00
2013-4-3,61.0,50.4,38.0,42.0,37.8,34.0,96,65,42,30.09,29.90,5,1,14,0.00
2013-4-4,74.0,55.9,39.0,35.0,30.2,24.0,74,45,17,30.16,30.05,6,1,14,0.00
2013-4-5,80.0,63.3,50.0,36.0,30.1,23.0,49,32,15,30.14,29.91,11,2,22,0.00
2013-4-6,82.0,69.2,54.0,33.0,25.0,14.0,43,21,10,29.97,29.85,14,3,28,0.00
2013-4-7,84.0,69.2,57.0,26.0,18.6,12.0,21,15,9,29.91,29.75,10,2,24,0.00
2013-4-8,83.0,70.5,58.0,27.0,21.2,16.0,25,16,11,29.78,29.54,8,2,28,0.00
2013-4-9,82.0,69.0,55.0,30.0,24.1,17.0,33,19,9,29.75,29.51,15,4,34,0.00
2013-4-10,59.0,49.7,37.0,29.0,24.6,22.0,59,38,27,29.89,29.75,6,1,14,0.00
2013-4-11,69.0,53.1,38.0,25.0,20.4,15.0,52,31,14,29.91,29.76,16,3,32,0.00
2013-4-12,79.0,62.2,46.0,36.0,20.1,15.0,40,21,11,29.88,29.72,4,0,17,0.00
2013-4-13,75.0,58.7,49.0,47.0,39.5,34.0,68,50,31,29.81,29.72,7,1,16,0.00
2013-4-14,81.0,66.0,48.0,37.0,28.0,18.0,64,30,11,29.81,29.68,15,3,31,0.00
2013-4-15,84.0,72.4,58.0,27.0,21.8,18.0,25,16,10,29.84,29.74,8,2,21,0.00
2013-4-16,89.0,71.7,56.0,33.0,14.9,3.0,29,13,5,29.87,29.77,9,1,20,0.00
2013-4-17,85.0,76.4,63.0,49.0,21.2,7.0,58,16,6,29.80,29.65,10,3,28,0.00
2013-4-18,68.0,55.0,43.0,32.0,24.5,9.0,63,32,10,30.05,29.73,9,2,17,0.00
2013-4-19,68.0,51.8,33.0,22.0,16.3,13.0,43,26,13,30.20,30.01,7,1,13,0.00
2013-4-20,79.0,61.6,45.0,26.0,16.7,2.0,37,20,7,30.05,29.79,8,2,24,0.00
2013-4-21,84.0,73.4,59.0,19.0,14.3,8.0,16,11,7,30.04,29.94,6,2,14,0.00
2013-4-22,89.0,70.7,53.0,21.0,13.5,8.0,19,12,6,30.02,29.83,8,1,25,0.00
2013-4-23,66.0,57.9,48.0,34.0,29.9,20.0,55,35,18,30.04,29.81,7,2,14,0.00
2013-4-24,65.0,49.3,32.0,34.0,29.5,24.0,73,48,29,30.19,30.03,5,2,14,0.00
2013-4-25,82.0,60.3,42.0,47.0,36.9,28.0,74,45,15,30.15,29.93,9,2,21,0.00
2013-4-26,84.0,67.8,52.0,42.0,29.2,13.0,66,32,8,30.10,29.98,13,3,26,0.00
2013-4-27,79.0,66.3,55.0,49.0,33.4,11.0,57,30,14,30.13,29.96,6,1,19,0.00
2013-4-28,76.0,64.8,52.0,54.0,46.2,35.0,94,54,23,30.03,29.87,3,0,20,0.00
2013-4-29,82.0,64.9,48.0,47.0,39.6,30.0,85,48,17,29.96,29.75,4,0,18,0.00
2013-4-30,90.0,78.0,60.0,39.0,24.9,13.0,44,17,7,29.83,29.72,12,3,24,0.00
2013-5-1,88.0,76.1,62.0,31.0,18.7,11.0,22,12,9,29.97,29.78,10,0,18,0.00
2013-5-2,72.0,45.6,36.0,43.0,30.3,23.0,87,58,22,30.38,29.97,10,2,28,0.00
2013-5-3,68.0,46.3,27.0,23.0,17.8,11.0,71,40,13,30.39,30.01,3,0,12,0.00
2013-5-4,80.0,62.0,45.0,32.0,20.2,9.0,25,20,15,30.03,29.85,4,0,18,0.00
2013-5-5,77.0,64.5,52.0,27.0,22.2,17.0,27,20,14,30.10,29.95,7,1,14,0.00
2013-5-6,83.0,67.6,55.0,41.0,30.8,27.0,43,27,15,30.02,29.89,17,1,30,0.00
2013-5-7,82.0,67.9,55.0,39.0,33.9,27.0,52,31,15,30.03,29.89,7,1,22,0.00
2013-5-8,85.0,70.0,55.0,42.0,31.7,22.0,57,28,12,30.02,29.88,9,1,20,0.00
2013-5-9,81.0,70.4,59.0,34.0,27.7,20.0,28,21,14,29.99,29.88,12,2,28,0.00
2013-5-10,72.0,62.0,49.0,46.0,36.7,-99.9,90,43,28,30.13,29.91,8,1,20,0.00
2013-5-11,66.0,57.7,48.0,48.0,43.3,-99.9,90,62,47,30.23,30.13,8,1,16,0.00
2013-5-12,71.0,59.8,47.0,44.0,38.8,34.0,78,49,27,30.25,30.13,6,1,16,0.00
2013-5-13,78.0,62.5,46.0,46.0,38.8,35.0,68,44,25,30.24,30.10,9,1,21,0.00
2013-5-14,82.0,64.8,52.0,52.0,45.8,42.0,79,53,25,30.17,29.96,14,2,25,0.00
2013-5-15,84.0,68.2,52.0,46.0,41.4,33.0,77,44,19,30.06,29.86,11,2,22,0.00
2013-5-16,91.0,71.8,65.0,34.0,14.9,-99.9,30,19,12,29.97,29.86,6,1,19,0.00
2013-5-17,92.0,77.2,63.0,34.0,24.3,-99.9,31,17,8,29.96,29.85,7,1,22,0.00
2013-5-18,92.0,80.3,67.0,30.0,20.5,11.0,16,11,9,29.96,29.83,9,1,29,0.00
2013-5-19,88.0,76.9,64.0,27.0,20.8,15.0,16,12,9,29.94,29.80,14,3,26,0.00
2013-5-20,90.0,79.5,65.0,29.0,23.3,18.0,17,13,9,29.91,29.79,8,2,17,0.00
2013-5-21,87.0,75.1,65.0,30.0,23.7,19.0,23,15,9,29.94,29.80,13,2,26,0.00
2013-5-22,90.0,74.0,55.0,49.0,33.7,21.0,51,26,10,29.95,29.82,4,0,18,0.00
2013-5-23,93.0,73.9,61.0,57.0,51.9,46.0,81,51,21,30.15,29.83,9,2,21,0.00
2013-5-24,85.0,69.6,59.0,58.0,52.9,48.0,92,59,34,30.08,29.95,7,0,12,0.00
2013-5-25,91.0,73.6,62.0,56.0,52.5,46.0,77,51,22,30.09,29.95,4,0,17,0.00
2013-5-26,93.0,76.4,59.0,59.0,50.5,33.0,84,48,13,30.13,29.92,15,2,20,0.00
2013-5-27,94.0,79.9,67.0,58.0,51.6,38.0,70,43,14,30.00,29.78,12,2,25,0.00
2013-5-28,93.0,81.7,69.0,59.0,48.0,28.0,68,36,11,29.86,29.66,8,2,25,0.00
2013-5-29,89.0,75.8,62.0,59.0,39.9,17.0,87,41,9,29.82,29.67,13,3,25,0.00
2013-5-30,91.0,77.8,64.0,35.0,29.5,20.0,25,17,13,29.90,29.76,11,2,22,0.00
2013-5-31,97.0,80.3,65.0,36.0,29.6,23.0,26,17,9,29.96,29.81,5,0,21,0.00
2013-6-1,91.0,80.8,68.0,59.0,31.2,19.0,60,18,9,30.02,29.85,5,1,18,0.00
2013-6-2,86.0,75.1,63.0,61.0,57.2,51.0,78,55,37,30.11,29.93,24,3,35,0.00
2013-6-3,90.0,72.8,58.0,56.0,52.0,48.0,89,53,27,30.21,29.88,24,1,35,0.00
2013-6-4,98.0,81.0,69.0,59.0,50.2,40.0,63,39,16,29.98,29.86,6,1,16,0.00
2013-6-5,98.0,82.8,68.0,50.0,42.9,36.0,47,27,13,29.97,29.83,8,1,19,0.00
2013-6-6,83.0,72.9,60.0,56.0,52.6,46.0,72,50,33,30.02,29.88,17,2,34,0.00
2013-6-7,85.0,69.3,60.0,59.0,54.6,35.0,87,63,22,30.09,29.87,2,0,14,0.00
2013-6-8,92.0,76.2,61.0,54.0,48.9,38.0,71,43,17,29.98,29.79,5,1,24,0.00
2013-6-9,90.0,79.0,71.0,55.0,50.0,44.0,51,38,22,30.04,29.85,6,1,14,0.00
2013-6-10,94.0,78.6,63.0,59.0,49.7,39.0,77,41,15,30.10,29.96,5,1,14,0.00
2013-6-11,93.0,78.5,63.0,57.0,51.4,45.0,77,44,19,30.08,29.94,4,0,18,0.00
2013-6-12,95.0,77.6,63.0,59.0,54.6,47.0,77,50,20,30.09,29.95,9,1,14,0.00
2013-6-13,81.0,67.7,59.0,64.0,59.7,57.0,96,78,47,30.08,29.96,6,0,20,0.00
2013-6-14,78.0,68.4,60.0,63.0,61.4,58.0,97,80,50,30.06,29.93,3,0,17,0.00
2013-6-15,88.0,73.7,60.0,64.0,59.6,53.0,95,66,34,30.06,29.96,5,1,13,0.00
2013-6-16,91.0,75.8,65.0,64.0,59.8,54.0,86,62,29,30.08,30.00,7,0,14,0.00
2013-6-17,90.0,73.6,64.0,63.0,59.4,49.0,85,63,27,30.11,29.98,8,0,21,0.00
2013-6-18,88.0,73.6,61.0,65.0,59.3,54.0,89,63,40,30.13,29.98,5,0,11,0.00
2013-6-19,92.0,78.0,66.0,64.0,57.9,46.0,82,55,22,30.04,29.91,6,1,19,0.00
2013-6-20,91.0,76.5,68.0,63.0,57.8,50.0,73,55,26,30.06,29.98,6,1,16,0.00
2013-6-22,94.0,82.7,70.0,62.0,59.6,54.0,74,49,26,30.05,29.93,5,1,20,0.00
2013-6-23,94.0,79.9,69.0,61.0,57.4,50.0,74,50,23,30.01,29.87,7,1,17,0.00
2013-6-24,93.0,81.0,71.0,62.0,58.0,54.0,65,47,28,30.03,29.92,3,0,17,0.00
2013-6-25,95.0,81.5,72.0,62.0,58.7,54.0,68,48,25,30.05,29.94,4,1,12,0.00
2013-6-26,99.0,86.5,73.0,63.0,52.4,41.0,69,37,14,30.06,29.97,4,1,20,0.00
2013-6-27,98.0,83.3,72.0,60.0,52.6,41.0,61,39,15,30.11,30.03,6,1,14,0.00
2013-6-28,94.0,78.4,64.0,54.0,47.5,43.0,65,38,18,30.15,30.05,4,1,19,0.00
2013-6-29,95.0,81.6,68.0,55.0,48.7,42.0,57,34,19,30.11,29.98,5,0,17,0.00
2013-6-30,87.0,77.5,70.0,58.0,51.2,45.0,55,41,28,30.09,29.98,5,1,13,0.00
2013-7-1,73.0,65.7,60.0,58.0,55.1,50.0,93,69,48,30.19,30.03,4,1,19,0.00
2013-7-2,80.0,68.2,56.0,55.0,49.5,47.0,80,55,32,30.22,30.07,2,0,13,0.00
2013-7-3,83.0,72.1,64.0,49.0,46.6,43.0,52,41,28,30.15,29.98,7,0,12,0.00
2013-7-4,90.0,82.1,66.0,49.0,47.3,46.0,51,31,22,30.03,29.91,8,2,21,0.00
2013-7-5,94.0,77.8,65.0,54.0,49.2,47.0,58,39,21,30.02,29.87,9,1,19,0.00
2013-7-6,95.0,76.1,67.0,54.0,51.5,50.0,55,44,23,29.99,29.86,5,1,14,0.00
2013-7-7,92.0,79.0,64.0,56.0,42.3,-99.9,63,37,20,30.05,29.94,8,1,17,0.00
2013-7-8,89.0,73.4,64.0,61.0,55.5,-99.9,78,58,30,30.14,30.02,8,1,17,0.00
2013-7-9,90.0,75.1,64.0,62.0,59.3,56.0,83,60,35,30.23,30.11,9,2,18,0.00
2013-7-10,91.0,77.8,67.0,62.0,56.7,-99.9,77,52,31,30.27,30.12,9,3,18,0.00
2013-7-11,92.0,78.8,67.0,59.0,56.1,53.0,67,47,29,30.21,30.08,14,2,20,0.00
2013-7-12,95.0,78.5,65.0,59.0,55.0,51.0,72,47,25,30.17,30.06,9,2,18,0.00
2013-7-13,93.0,79.5,65.0,55.0,51.5,48.0,61,40,25,30.22,30.09,7,2,16,0.00
2013-7-14,94.0,81.0,67.0,52.0,47.3,43.0,53,33,18,30.18,29.99,10,2,15,0.00
2013-7-15,79.0,65.7,58.0,60.0,55.3,47.0,91,73,33,30.21,30.00,15,3,24,0.02
2013-7-16,64.0,60.4,58.0,59.0,56.5,54.0,91,87,82,30.29,30.16,7,2,12,0.05
2013-7-17,71.0,65.0,60.0,65.0,61.0,57.0,93,87,74,30.33,30.25,8,3,14,0.76
2013-7-18,73.0,66.2,63.0,63.0,60.9,60.0,93,84,67,30.30,30.19,8,3,14,0.06
2013-7-19,78.0,68.7,63.0,63.0,61.0,59.0,89,77,56,30.24,30.11,5,2,11,0.01
2013-7-20,79.0,69.0,65.0,62.0,59.4,-99.9,90,74,53,30.18,30.07,8,2,15,0.01
2013-7-21,83.0,70.8,63.0,64.0,60.3,58.0,90,72,46,30.14,30.04,6,1,13,0.01
2013-7-22,86.0,73.7,64.0,65.0,62.0,59.0,87,69,44,30.16,30.06,8,2,17,0.01
2013-7-23,89.0,75.8,66.0,64.0,62.2,58.0,87,65,38,30.17,30.08,9,3,22,0.00
2013-7-24,88.0,74.6,68.0,67.0,62.0,55.0,83,66,40,30.19,30.11,7,1,16,0.09
2013-7-25,91.0,76.7,64.0,62.0,57.2,53.0,82,55,28,30.27,30.16,7,2,13,0.08
2013-7-26,87.0,73.2,67.0,62.0,58.6,55.0,76,61,41,30.28,30.21,11,2,16,0.08
2013-7-27,85.0,74.8,67.0,63.0,59.9,54.0,84,61,41,30.29,30.14,8,2,15,0.02
2013-7-28,88.0,73.5,63.0,64.0,60.6,56.0,83,66,39,30.20,30.05,8,2,16,0.01
2013-7-29,85.0,74.3,67.0,64.0,60.6,56.0,81,64,43,30.23,30.10,7,2,18,0.01
2013-7-30,92.0,76.2,70.0,64.0,60.8,54.0,73,60,35,30.28,30.21,14,2,19,0.00
2013-7-31,95.0,79.8,65.0,63.0,57.5,54.0,67,49,27,30.31,30.18,9,3,15,0.00
2013-8-1,93.0,80.4,65.0,59.0,51.7,47.0,70,40,21,30.27,30.16,8,3,17,0.00
2013-8-2,95.0,80.8,66.0,56.0,50.9,47.0,58,37,22,30.22,30.08,7,2,15,0.00
2013-8-3,97.0,82.3,71.0,57.0,53.3,50.0,54,39,22,30.21,30.11,10,2,16,0.00
2013-8-4,95.0,85.0,69.0,59.0,56.2,53.0,65,39,29,30.24,30.10,9,4,15,0.00
2013-8-5,97.0,81.5,70.0,59.0,56.5,54.0,64,45,24,30.22,30.09,6,2,18,0.00
2013-8-6,93.0,77.2,70.0,64.0,59.0,56.0,81,55,30,30.18,30.10,9,2,16,0.32
2013-8-7,84.0,72.8,65.0,63.0,59.5,55.0,86,64,50,30.19,30.10,9,2,19,0.32
2013-8-8,92.0,77.8,67.0,61.0,56.5,53.0,77,51,28,30.16,30.04,7,2,17,0.06
2013-8-9,91.0,76.8,67.0,64.0,58.0,54.0,76,54,33,30.27,30.12,8,2,13,0.04
2013-8-10,85.0,75.0,67.0,63.0,59.3,57.0,77,60,42,30.32,30.22,9,3,16,0.04
2013-8-11,88.0,77.9,65.0,60.0,57.7,56.0,77,52,36,30.31,30.19,10,3,17,0.00
2013-8-12,89.0,76.1,64.0,61.0,58.6,56.0,80,56,36,30.24,30.14,9,1,15,0.00
2013-8-13,93.0,78.6,67.0,62.0,56.2,-99.9,74,50,28,30.22,30.10,7,2,16,0.00
2013-8-14,87.0,78.0,66.0,62.0,59.6,58.0,76,55,40,30.26,30.15,12,2,19,0.00
2013-8-15,92.0,73.5,66.0,59.0,44.3,-99.9,70,45,28,30.26,30.15,9,1,15,0.00
2013-8-16,92.0,77.4,66.0,59.0,48.2,-99.9,71,40,24,30.24,30.17,9,2,16,0.13
2013-8-17,93.0,77.0,62.0,59.0,53.2,-99.9,80,49,23,30.32,30.14,15,2,25,0.08
2013-8-18,91.0,76.3,67.0,58.0,54.2,49.0,64,48,29,30.25,30.18,6,2,19,0.05
2013-8-19,93.0,74.7,64.0,58.0,42.3,-99.9,66,40,17,30.25,30.13,8,2,15,0.05
2013-8-20,88.0,75.8,67.0,54.0,50.0,-99.9,57,42,30,30.21,30.13,7,2,15,0.00
2013-8-21,87.0,75.4,61.0,56.0,48.9,46.0,62,41,26,30.25,30.15,9,2,17,0.00
2013-8-22,86.0,75.7,64.0,58.0,56.0,53.0,74,52,33,30.26,30.16,8,2,18,0.00
2013-8-23,72.0,71.1,70.0,58.0,57.4,57.0,66,62,59,30.19,30.16,6,3,13,0.00
2013-8-24,85.0,74.4,65.0,60.0,55.7,-99.9,79,55,37,30.25,30.15,9,3,14,0.00
2013-8-25,86.0,77.8,63.0,61.0,56.9,53.0,78,50,39,30.33,30.21,11,4,16,0.00
2013-8-26,85.0,74.3,64.0,62.0,57.5,54.0,83,58,36,30.32,30.19,10,3,14,0.00
2013-8-27,76.0,69.2,65.0,62.0,60.4,59.0,84,74,59,30.24,30.19,7,3,13,0.00
2013-9-1,96.0,81.3,66.0,54.0,52.5,50.0,61,40,22,30.14,30.05,9,2,18,0.00
2013-9-2,87.0,76.8,66.0,58.0,54.8,51.0,58,47,34,30.22,30.10,11,2,19,0.00
2013-9-3,87.0,74.8,62.0,58.0,54.7,50.0,73,51,35,30.25,30.13,7,2,15,0.00
2013-9-4,90.0,77.3,64.0,57.0,51.9,49.0,62,43,27,30.30,30.19,12,4,22,0.00
2013-9-5,90.0,77.1,67.0,59.0,55.4,53.0,66,49,32,30.32,30.20,11,4,14,0.00
2013-9-6,86.0,74.7,62.0,59.0,55.4,53.0,76,53,35,30.31,30.17,8,3,15,0.00
2013-9-7,88.0,73.6,62.0,60.0,54.1,-99.9,80,54,32,30.25,30.10,7,2,18,0.00
2013-9-8,88.0,70.9,61.0,62.0,57.4,54.0,85,65,34,30.18,30.03,9,2,16,0.57
2013-9-9,79.0,67.4,60.0,62.0,59.4,56.0,92,77,52,30.12,30.06,9,2,19,0.57
2013-9-10,82.0,70.7,62.0,62.0,60.6,58.0,89,72,47,30.17,30.08,8,2,15,0.04
2013-9-11,79.0,71.7,66.0,63.0,61.8,61.0,85,72,55,30.22,30.11,9,3,15,0.00
2013-9-12,78.0,70.9,66.0,63.0,59.9,57.0,83,69,50,30.22,30.11,7,3,15,0.00
2013-9-13,81.0,71.9,61.0,59.0,55.0,52.0,85,58,37,30.17,30.03,9,3,16,0.00
2013-9-14,83.0,71.3,60.0,56.0,50.8,-99.9,76,51,35,30.12,30.03,8,3,19,0.00
2013-9-15,84.0,71.2,60.0,59.0,55.6,52.0,80,60,35,30.20,30.09,8,3,14,0.00
2013-9-16,78.0,70.0,61.0,61.0,57.5,53.0,83,65,51,30.24,30.16,8,3,16,0.00
2013-9-17,76.0,68.5,64.0,61.0,58.8,57.0,89,72,52,30.24,30.12,9,4,15,0.06
2013-9-18,66.0,63.4,62.0,62.0,59.7,58.0,90,88,85,30.17,30.10,4,0,10,0.08
2013-9-19,74.0,66.1,62.0,64.0,61.4,59.0,92,85,67,30.11,30.02,6,1,13,0.47
2013-9-20,71.0,63.6,59.0,63.0,59.6,56.0,93,87,72,30.19,30.03,8,3,19,0.52
2013-9-21,74.0,63.7,58.0,57.0,53.6,-99.9,91,73,50,30.23,30.09,6,2,10,0.27
2013-9-24,84.0,75.2,65.0,42.0,39.8,34.0,42,29,20,30.21,30.10,6,2,13,0.00
2013-9-25,89.0,72.6,57.0,55.0,43.8,39.0,57,38,21,30.15,29.96,8,2,15,0.00
2013-9-26,90.0,75.4,64.0,54.0,50.4,44.0,58,43,26,30.03,29.92,8,3,16,0.00
2013-9-27,87.0,74.3,66.0,62.0,55.3,53.0,79,53,35,30.02,29.92,11,2,23,0.01
2013-9-28,74.0,66.2,58.0,62.0,44.5,-99.9,87,50,27,30.28,29.97,11,4,18,0.21
2013-9-29,82.0,67.7,52.0,50.0,45.8,42.0,80,48,25,30.29,30.12,9,2,17,0.10
2013-9-30,86.0,67.8,55.0,46.0,39.2,34.0,65,39,17,30.18,30.01,10,3,20,0.00
2013-10-2,89.0,74.4,60.0,43.0,36.8,29.0,39,26,19,30.13,30.00,11,3,17,0.00
2013-10-3,88.0,75.7,64.0,56.0,47.3,40.0,61,38,25,30.08,29.95,10,4,21,0.00
2013-10-4,90.0,75.5,64.0,56.0,44.9,33.0,62,36,18,30.07,29.98,8,2,16,0.00
2013-10-5,70.0,63.1,56.0,45.0,33.6,22.0,50,34,26,30.25,30.07,8,3,18,0.00
2013-10-6,71.0,60.5,47.0,31.0,28.2,21.0,50,31,20,30.34,30.24,7,3,14,0.00
2013-10-7,78.0,60.4,46.0,27.0,22.8,17.0,42,26,13,30.35,30.20,7,1,14,0.00
2013-10-8,83.0,68.3,51.0,40.0,32.5,21.0,36,27,18,30.23,30.05,9,3,22,0.00
2013-10-9,85.0,70.1,55.0,45.0,37.9,33.0,46,32,18,30.11,30.00,7,3,23,0.00
2013-10-10,84.0,72.2,61.0,46.0,42.5,32.0,52,36,18,30.08,29.94,12,5,26,0.00
2013-10-17,75.0,60.0,47.0,56.0,50.7,45.0,94,74,43,30.19,30.03,9,2,16,0.01
2013-10-18,76.0,62.8,48.0,57.0,44.0,23.0,93,58,19,30.23,29.99,11,3,19,0.00
2013-10-19,73.0,53.0,39.0,46.0,38.4,-99.9,79,62,32,30.29,30.11,6,2,15,0.00
2013-10-20,78.0,60.9,49.0,50.0,40.0,31.0,84,52,22,30.13,29.96,9,3,17,0.00
2013-10-21,66.0,55.6,48.0,40.0,35.1,25.0,66,47,35,30.24,30.03,9,3,20,0.00
2013-10-22,72.0,56.3,42.0,43.0,36.6,32.0,87,52,25,30.34,30.20,6,1,12,0.00
2013-10-23,77.0,59.6,44.0,36.0,32.9,28.0,56,39,22,30.27,30.16,7,1,15,0.00
2013-10-24,79.0,64.1,49.0,41.0,37.0,33.0,58,39,24,30.28,30.17,5,2,13,0.00
2013-10-25,68.0,61.3,49.0,45.0,41.0,34.0,77,49,31,30.31,30.20,4,2,12,0.01
2013-10-26,78.0,61.8,50.0,49.0,45.1,-99.9,80,58,34,30.29,30.18,7,2,15,0.00
2013-10-27,76.0,61.6,47.0,47.0,43.2,39.0,78,53,33,30.28,30.08,9,2,21,0.00
2013-10-28,78.0,64.9,56.0,51.0,41.5,-99.9,76,49,20,30.12,30.02,11,2,21,0.00
2013-10-29,78.0,66.4,58.0,56.0,46.0,34.0,84,50,30,30.16,30.05,9,2,14,0.00
2013-10-30,71.0,63.1,58.0,57.0,50.0,44.0,83,64,41,30.13,29.99,9,3,21,0.01
2013-11-18,68.0,58.2,47.0,39.0,36.4,34.0,62,45,35,30.25,30.15,4,1,11,0.00
2013-11-19,74.0,60.6,47.0,46.0,42.0,35.0,67,52,34,30.19,29.99,10,3,24,0.00
2013-11-20,76.0,62.5,55.0,54.0,45.8,37.0,84,58,26,30.03,29.91,10,3,21,0.00
2013-11-21,74.0,62.5,52.0,50.0,43.8,38.0,85,53,33,30.18,29.99,7,2,14,0.00
2013-11-22,55.0,29.4,23.0,51.0,25.5,20.0,90,85,69,30.42,30.17,10,4,21,0.00
2013-11-23,26.0,24.5,23.0,23.0,21.1,-99.9,91,89,89,30.45,30.35,8,3,18,0.00
2013-11-24,24.0,22.0,21.0,22.0,20.0,19.0,90,90,90,30.40,30.34,4,2,10,0.00
2013-12-7,23.0,21.9,20.0,21.0,19.7,17.0,91,90,89,30.24,30.20,0,0,0,0.01
2013-12-8,65.0,43.8,30.0,39.0,28.7,20.0,94,63,18,30.05,29.96,13,3,22,0.01
2013-12-9,65.0,46.2,28.0,32.0,25.1,20.0,91,51,20,30.32,29.98,10,3,21,0.01
2013-12-10,56.0,37.2,25.0,28.0,23.0,17.0,91,63,21,30.37,30.20,8,2,15,0.00
2013-12-11,50.0,41.4,33.0,30.0,24.6,19.0,63,51,35,30.51,30.22,10,3,14,0.00
2013-12-12,57.0,41.3,31.0,30.0,24.1,18.0,67,51,35,30.50,30.21,5,1,10,0.00
2013-12-13,60.0,49.0,41.0,40.0,32.2,26.0,65,53,35,30.21,29.98,18,6,32,0.01